• In Germany
  • List of Countries
  • For 7 days
  • Water Temperature
  • Satellite Maps
  • Weather Map
  • Weather Widgets
  • user-avatar
    Login

    Hourly Weather Abovyan

    Today, 26 July, Wednesday

    Time Temperature Precipitation Wind Pressure Humidity
    00:00 +21°C° 0.2 mm 2 mps 667 mmHg 68%
    01:00 +21°C° 0.1 mm 2 mps 667 mmHg 69%
    02:00 +21°C° 0.1 mm 2 mps 667 mmHg 70%
    03:00 +20°C° 0.1 mm 2 mps 667 mmHg 70%
    04:00 +21°C° 0 mm 2 mps 668 mmHg 70%
    05:00 +21°C° 0 mm 2 mps 668 mmHg 69%
    06:00 +22°C° 0 mm 1 mps 668 mmHg 68%
    07:00 +24°C° 0.1 mm 1 mps 668 mmHg 59%
    08:00 +26°C° 0.1 mm 1 mps 669 mmHg 50%
    09:00 +28°C° 0 mm 1 mps 669 mmHg 44%
    10:00 +30°C° 0.3 mm 1 mps 669 mmHg 40%
    11:00 +31°C° 0.3 mm 2 mps 669 mmHg 36%
    12:00 +32°C° 0.3 mm 2 mps 669 mmHg 32%
    13:00 +34°C° 0 mm 2 mps 669 mmHg 31%
    14:00 +34°C° 0 mm 2 mps 669 mmHg 30%
    15:00 +35°C° 0 mm 2 mps 669 mmHg 29%
    16:00 +34°C° 0.2 mm 2 mps 669 mmHg 32%
    17:00 +32°C° 0.2 mm 2 mps 669 mmHg 35%
    18:00 +32°C° 0.2 mm 2 mps 669 mmHg 38%
    19:00 +29°C° 0.2 mm 2 mps 669 mmHg 44%
    20:00 +27°C° 0.2 mm 2 mps 669 mmHg 51%
    21:00 +25°C° 0.2 mm 3 mps 669 mmHg 58%
    22:00 +24°C° 0.3 mm 2 mps 669 mmHg 60%
    23:00 +24°C° 0.3 mm 2 mps 669 mmHg 61%

    Tomorrow, 27 July, Thursday

    Time Temperature Precipitation Wind Pressure Humidity
    00:00 +23°C° 0.3 mm 2 mps 670 mmHg 63%
    01:00 +23°C° 0.3 mm 2 mps 670 mmHg 64%
    02:00 +21°C° 0.3 mm 2 mps 670 mmHg 65%
    03:00 +21°C° 0.3 mm 2 mps 670 mmHg 67%
    04:00 +22°C° 0.1 mm 1 mps 670 mmHg 66%
    05:00 +22°C° 0.1 mm 1 mps 670 mmHg 66%
    06:00 +23°C° 0.1 mm 1 mps 670 mmHg 65%
    07:00 +25°C° 0 mm 1 mps 671 mmHg 58%
    08:00 +27°C° 0 mm 1 mps 671 mmHg 51%
    09:00 +29°C° 0 mm 1 mps 671 mmHg 43%
    10:00 +31°C° 0 mm 1 mps 671 mmHg 39%
    11:00 +32°C° 0 mm 2 mps 671 mmHg 35%
    12:00 +34°C° 0 mm 2 mps 671 mmHg 31%
    13:00 +35°C° 0 mm 2 mps 671 mmHg 29%
    14:00 +35°C° 0 mm 2 mps 671 mmHg 27%
    15:00 +36°C° 0 mm 2 mps 670 mmHg 26%
    16:00 +35°C° 0 mm 2 mps 670 mmHg 28%
    17:00 +35°C° 0 mm 2 mps 670 mmHg 31%
    18:00 +34°C° 0 mm 2 mps 670 mmHg 34%
    19:00 +31°C° 0.1 mm 2 mps 670 mmHg 42%
    20:00 +28°C° 0.1 mm 2 mps 670 mmHg 50%
    21:00 +26°C° 0.1 mm 3 mps 670 mmHg 58%
    22:00 +26°C° 0.1 mm 2 mps 670 mmHg 60%
    23:00 +25°C° 0.1 mm 2 mps 671 mmHg 63%

    Day after tomorrow, 28 July, Friday

    Time Temperature Precipitation Wind Pressure Humidity
    00:00 +24°C° 0.1 mm 2 mps 671 mmHg 65%
    01:00 +24°C° 0 mm 2 mps 671 mmHg 66%
    02:00 +24°C° 0 mm 2 mps 671 mmHg 66%
    03:00 +23°C° 0 mm 2 mps 671 mmHg 67%
    04:00 +24°C° 0 mm 2 mps 671 mmHg 65%
    05:00 +24°C° 0 mm 1 mps 671 mmHg 63%
    06:00 +24°C° 0 mm 1 mps 671 mmHg 60%
    07:00 +27°C° 0 mm 2 mps 672 mmHg 51%
    08:00 +29°C° 0 mm 2 mps 672 mmHg 42%
    09:00 +31°C° 0 mm 2 mps 672 mmHg 33%
    10:00 +34°C° 0 mm 2 mps 672 mmHg 30%
    11:00 +35°C° 0 mm 3 mps 672 mmHg 27%
    12:00 +37°C° 0 mm 3 mps 672 mmHg 23%
    13:00 +37°C° 0 mm 3 mps 672 mmHg 22%
    14:00 +38°C° 0 mm 3 mps 671 mmHg 21%
    15:00 +39°C° 0 mm 3 mps 671 mmHg 19%
    16:00 +38°C° 0 mm 3 mps 671 mmHg 22%
    17:00 +37°C° 0 mm 2 mps 671 mmHg 25%
    18:00 +36°C° 0 mm 2 mps 670 mmHg 28%
    19:00 +32°C° 0 mm 2 mps 670 mmHg 33%
    20:00 +30°C° 0 mm 2 mps 671 mmHg 37%
    21:00 +28°C° 0 mm 2 mps 671 mmHg 42%
    22:00 +27°C° 0 mm 2 mps 671 mmHg 44%
    23:00 +26°C° 0 mm 2 mps 671 mmHg 46%

    29 July, Saturday

    Time Temperature Precipitation Wind Pressure Humidity
    00:00 +25°C° 0 mm 1 mps 671 mmHg 48%
    01:00 +25°C° 0 mm 1 mps 671 mmHg 48%
    02:00 +25°C° 0 mm 1 mps 671 mmHg 48%
    03:00 +24°C° 0 mm 1 mps 671 mmHg 48%
    04:00 +24°C° 0 mm 1 mps 671 mmHg 46%
    05:00 +25°C° 0 mm 1 mps 671 mmHg 44%
    06:00 +25°C° 0 mm 1 mps 672 mmHg 42%
    07:00 +28°C° 0 mm 1 mps 672 mmHg 35%
    08:00 +30°C° 0 mm 2 mps 672 mmHg 28%
    09:00 +34°C° 0 mm 2 mps 673 mmHg 22%
    10:00 +35°C° 0 mm 2 mps 673 mmHg 20%
    11:00 +36°C° 0 mm 2 mps 673 mmHg 19%
    12:00 +38°C° 0 mm 3 mps 673 mmHg 17%
    13:00 +38°C° 0 mm 3 mps 672 mmHg 16%
    14:00 +38°C° 0 mm 3 mps 672 mmHg 16%
    15:00 +39°C° 0 mm 3 mps 672 mmHg 15%
    16:00 +38°C° 0 mm 3 mps 672 mmHg 18%
    17:00 +37°C° 0 mm 3 mps 672 mmHg 21%
    18:00 +36°C° 0 mm 2 mps 671 mmHg 24%
    19:00 +32°C° 0 mm 2 mps 672 mmHg 33%
    20:00 +30°C° 0 mm 3 mps 672 mmHg 41%
    21:00 +27°C° 0 mm 3 mps 672 mmHg 50%
    22:00 +26°C° 0.1 mm 3 mps 672 mmHg 56%
    23:00 +25°C° 0.1 mm 3 mps 673 mmHg 62%

    30 July, Sunday

    Time Temperature Precipitation Wind Pressure Humidity
    00:00 +24°C° 0.1 mm 3 mps 673 mmHg 68%
    01:00 +24°C° 0 mm 3 mps 673 mmHg 70%
    02:00 +22°C° 0 mm 3 mps 673 mmHg 72%
    03:00 +21°C° 0 mm 3 mps 673 mmHg 74%
    04:00 +23°C° 0 mm 2 mps 673 mmHg 73%
    05:00 +23°C° 0 mm 2 mps 673 mmHg 72%
    06:00 +23°C° 0 mm 2 mps 673 mmHg 70%
    07:00 +25°C° 0 mm 2 mps 674 mmHg 61%
    08:00 +27°C° 0 mm 2 mps 674 mmHg 53%
    09:00 +30°C° 0 mm 2 mps 674 mmHg 44%
    10:00 +31°C° 0 mm 2 mps 674 mmHg 40%
    11:00 +34°C° 0 mm 2 mps 674 mmHg 35%
    12:00 +35°C° 0 mm 2 mps 674 mmHg 31%
    13:00 +35°C° 0 mm 2 mps 673 mmHg 30%
    14:00 +36°C° 0 mm 3 mps 673 mmHg 30%
    15:00 +37°C° 0 mm 3 mps 673 mmHg 29%
    16:00 +36°C° 0.3 mm 4 mps 673 mmHg 32%
    17:00 +35°C° 0.3 mm 4 mps 673 mmHg 36%
    18:00 +34°C° 0.3 mm 5 mps 672 mmHg 39%
    19:00 +32°C° 0.1 mm 4 mps 673 mmHg 43%
    20:00 +29°C° 0.1 mm 4 mps 673 mmHg 47%
    21:00 +27°C° 0.1 mm 3 mps 673 mmHg 51%
    22:00 +26°C° 0 mm 3 mps 674 mmHg 53%
    23:00 +26°C° 0 mm 3 mps 674 mmHg 55%

    31 July, Monday

    Time Temperature Precipitation Wind Pressure Humidity
    00:00 +25°C° 0 mm 3 mps 674 mmHg 58%
    01:00 +24°C° 0.1 mm 3 mps 674 mmHg 61%
    02:00 +24°C° 0.1 mm 3 mps 674 mmHg 64%
    03:00 +22°C° 0.1 mm 3 mps 673 mmHg 67%
    04:00 +23°C° 0 mm 2 mps 674 mmHg 67%
    05:00 +23°C° 0 mm 2 mps 674 mmHg 67%
    06:00 +23°C° 0 mm 2 mps 674 mmHg 67%
    07:00 +25°C° 0 mm 2 mps 674 mmHg 60%
    08:00 +28°C° 0 mm 2 mps 675 mmHg 53%
    09:00 +30°C° 0 mm 2 mps 675 mmHg 46%
    10:00 +31°C° 0.2 mm 2 mps 675 mmHg 43%
    11:00 +32°C° 0.2 mm 2 mps 675 mmHg 40%
    12:00 +34°C° 0.2 mm 2 mps 674 mmHg 37%
    13:00 +35°C° 0.2 mm 3 mps 674 mmHg 37%
    14:00 +35°C° 0.2 mm 3 mps 674 mmHg 37%
    15:00 +36°C° 0.2 mm 3 mps 674 mmHg 37%
    16:00 +35°C° 0.3 mm 4 mps 674 mmHg 40%
    17:00 +34°C° 0.3 mm 4 mps 674 mmHg 43%
    18:00 +33°C° 0.3 mm 4 mps 674 mmHg 46%
    19:00 +30°C° 0.4 mm 4 mps 674 mmHg 52%
    20:00 +28°C° 0.4 mm 3 mps 674 mmHg 58%
    21:00 +26°C° 0.4 mm 3 mps 674 mmHg 65%
    22:00 +25°C° 0.2 mm 3 mps 674 mmHg 66%
    23:00 +25°C° 0.2 mm 3 mps 675 mmHg 68%
    Show more